Tracking 19832 objects as of 25-Aug-2019
HD Live streaming from Space Station
objects crossing your sky now

COSMOS 2251 DEB

Track COSMOS 2251 DEB now!
10-day predictions


NORAD ID: 34026
Int'l Code: 1993-036HM
Perigee: 774.8 km
Apogee: 1,310.7 km
Inclination: 73.8 °
Period: 105.9 minutes
Semi major axis: 7413 km
RCS: 0.0392 m2 (small)
Launch date: June 16, 1993
Source: Commonwealth of Independent States (former USSR) (CIS)
Launch site: PLESETSK MISSILE AND SPACE COMPLEX (PKMTR)

Note: This is SATELLITE DEBRIS
aabbcc
Your satellite tracking list
Your tracking list is empty




NASA's NSSDC Master Catalog

Two Line Element Set (TLE):
1 34026U 93036HM  19236.96427309 +.00000277 +00000-0 +26023-3 0  9999
2 34026 073.7691 181.3379 0361425 040.1813 032.9529 13.60023217522004
Source of the keplerian elements: AFSPC